Regional Weather Roundup
Issued by NWS

Home | Current Version | Previous Version | Text Only | Print | Product List | Glossary Off
Versions: 1 2 3 4 5 6 7 8 9 10 11 12 13 14 15 16 17 18 19 20 21 22 23 24 25 26 27 28 29 30 31 32 33 34 35 36 37 38 39 40 41 42 43 44 45 46 47 48 49 50

699
ASUS43 KIND 090359
RWRIN

WEATHER ROUNDUP FOR INDIANA
NATIONAL WEATHER SERVICE INDIANAPOLIS IN
1100 PM EST MON FEB 08 2016

NOTE: "FAIR" INDICATES FEW OR NO CLOUDS BELOW 12,000 FEET WITH NO
SIGNIFICANT WEATHER AND/OR OBSTRUCTIONS TO VISIBILITY.

* - STATION DOES NOT REPORT WEATHER SUCH AS PRECIPITATION OR FOG.

+ - STATION NOT QUALITY CONTROLLED BY THE NATIONAL WEATHER SERVICE.
    USE DATA WITH CAUTION...ESPECIALLY DEWPOINT AND RELATIVE
    HUMIDITY OBSERVATIONS.

INZ001>003-010>013-019-020-090500-
NORTHWEST INDIANA

CITY           SKY/WX    TMP DP  RH WIND       PRES   REMARKS
GARY /AIRPORT/ CLOUDY    28  19  69 W17       29.74S WCI  16

$$

LMZ046-743>745-090500-
SOUTHERN LAKE MICHIGAN

STATION/POSITION TIME  TEMP    WIND        PRES    WAVE
                       AIR SEA DIR/SP/G            HT
                 (UTC) (F)     (DEG/KT/KT) (MB)    (FT)
BURNS HARBOR     0300   28     280/ 14/ 17 1007.1
MICHIGAN CITY    0300   26     270/ 17/ 20   N/A

$$

INZ004-005-014>016-021>024-090500-
NORTH CENTRAL INDIANA

CITY           SKY/WX    TMP DP  RH WIND       PRES   REMARKS
GOSHEN         LGT SNOW  27  24  89 W12       29.67F FOG     WCI  17
SOUTH BEND     CLOUDY    26  24  92 W10       29.69S WCI  16

$$

INZ006>009-017-018-025>027-090500-
NORTHEAST INDIANA

CITY           SKY/WX    TMP DP  RH WIND       PRES   REMARKS
ANGOLA *+      CLOUDY    28  27  93 W7        29.63F WCI  21
FORT WAYNE     CLOUDY    28  23  81 W17       29.68F WCI  16

$$

INZ028-029-035-036-043>045-051>053-090500-
WEST CENTRAL INDIANA

CITY           SKY/WX    TMP DP  RH WIND       PRES   REMARKS
GREENCASTLE +  FLURRIES  21  12  68 W7        29.79S WCI  13
LAFAYETTE      CLOUDY    22  18  85 W16       29.76F WCI   8
TERRE HAUTE    FLURRIES  21  15  78 W9        29.83S WCI  11

$$

INZ030>032-037>040-046>048-054>057-064-065-090500-
CENTRAL INDIANA

CITY           SKY/WX    TMP DP  RH WIND       PRES   REMARKS
GREENWOOD *+   CLOUDY    23  19  86 W10       29.77F WCI  12
INDIANAPOLIS   FLURRIES  22  16  78 W12       29.75F WCI  10
-EAGLE CREEK   CLOUDY    22  17  81 W14       29.75F WCI   9
KOKOMO *+      CLOUDY    25  19  80 W18       29.71F WCI  11
MT COMFORT *+  CLOUDY    23  18  80 W12       29.75F WCI  12
SHELBYVILLE    FLURRIES  23  16  74 W15       29.75F WCI  10

$$

INZ033-034-041-042-049-050-058-059-090500-
EAST CENTRAL INDIANA

CITY           SKY/WX    TMP DP  RH WIND       PRES   REMARKS
MUNCIE         FLURRIES  25  19  78 W15       29.71S WCI  13

$$

INZ060-061-067>069-081>083-085>088-090500-
SOUTHWEST INDIANA

CITY           SKY/WX    TMP DP  RH WIND       PRES   REMARKS
EVANSVILLE     LGT SNOW  24  17  74 W7        29.90F WCI  16
HUNTINGBURG *+ CLOUDY    21  16  79 NW14      29.87S WCI   8

$$

INZ062-063-066-070>080-084-089>092-090500-
SOUTH CENTRAL AND SOUTHEAST INDIANA

CITY           SKY/WX    TMP DP  RH WIND       PRES   REMARKS
BLOOMINGTON    CLOUDY    21  16  81 W7        29.80S WCI  12
MADISON *+     CLOUDY    23  19  86 W8        29.80S WCI  14
SEYMOUR +      FLURRIES  25  18  74 W10G16    29.81S WCI  15

$$





USA.gov is the U.S. government's official web portal to all federal, state and local government web resources and services.